Bert Mooney Airport Butte US
ICAO: KBTM
IATA: BTM
Category: Medium
Scheduled Services: Yes

Elevation: 5550 ft
TransAlt. 18000 ft.

Airport Communications:
ASOS:135.175
SALT LAKE CITY CNTR:132.4
GREAT FALLS RDO:122.2
CTAF/UNICOM:123

KBTM Zoom In..

If you have problems with the map follow the link
https://www.worldairports.se/pages/airport.php?
ICAO=KBTM

Runways:

(A) RW 12 length 5100 ft width 75 ft
---- / hdg 113

(B) RW 15 length 9001 ft width 150 ft
ILS 110.90 / hdg 151

(C) RW 30 length 5100 ft width 75 ft
---- / hdg 293

(D) RW 33 length 9001 ft width 150 ft
---- / hdg 331

Location; KBTM
Day. 12 / Time. 06.53 Zulu
* Altimeter: 29.92
* Temperature: -01° c. -30.2°f.
* Wind from: 000° Speed 00 kn.
Dewpoint: -06° c.
Visibility: 10 Statute Miles.
Clouds: Overcast 5500 ft.

KBTM 120653Z AUTO 00000KT 10SM OVC055 M01/M06 A2992 RMK AO2 SLP149 T10111056 400331094


Wind - Calm.

 
 
jpsmedia worldairports.se 2019   terms of use